TimePDT,TemperatureF,Dew PointF,Humidity,Sea Level PressureIn,VisibilityMPH,Wind Direction,Wind SpeedMPH,Gust SpeedMPH,PrecipitationIn,Events,Conditions,WindDirDegrees,DateUTC
12:53 AM,70.0,59.0,68,30.02,10.0,North,5.8,-,N/A,,Clear,10,2013-07-02 07:53:00
1:53 AM,70.0,59.0,68,30.04,10.0,NE,5.8,-,N/A,,Clear,40,2013-07-02 08:53:00
2:53 AM,66.9,59.0,76,30.04,10.0,North,5.8,-,N/A,,Clear,10,2013-07-02 09:53:00
3:53 AM,66.0,59.0,78,30.04,10.0,NNE,5.8,-,N/A,,Clear,30,2013-07-02 10:53:00
4:53 AM,64.0,59.0,84,30.05,10.0,NNE,3.5,-,N/A,,Clear,20,2013-07-02 11:53:00
5:53 AM,64.0,57.0,78,30.06,10.0,Calm,Calm,-,N/A,,Clear,0,2013-07-02 12:53:00
6:35 AM,64.4,57.2,77,30.07,1.8,NNE,5.8,-,N/A,,Haze,30,2013-07-02 13:35:00
7:53 AM,68.0,59.0,73,30.08,10.0,Calm,Calm,-,N/A,,Clear,0,2013-07-02 14:53:00
8:53 AM,70.0,59.0,68,30.08,10.0,Calm,Calm,-,N/A,,Clear,0,2013-07-02 15:53:00
9:53 AM,73.9,60.1,62,30.07,10.0,Calm,Calm,-,N/A,,Clear,0,2013-07-02 16:53:00
10:53 AM,77.0,60.1,56,30.06,10.0,Variable,3.5,-,N/A,,Clear,0,2013-07-02 17:53:00
11:53 AM,81.0,61.0,50,30.05,10.0,NNE,5.8,-,N/A,,Clear,20,2013-07-02 18:53:00
12:53 PM,82.9,61.0,47,30.04,10.0,North,5.8,-,N/A,,Clear,350,2013-07-02 19:53:00
1:53 PM,84.9,63.0,48,30.04,10.0,Variable,4.6,-,N/A,,Clear,0,2013-07-02 20:53:00
2:53 PM,87.1,63.0,44,30.03,10.0,Variable,5.8,-,N/A,,Clear,0,2013-07-02 21:53:00
3:53 PM,89.1,61.0,39,30.03,10.0,North,6.9,-,N/A,,Clear,360,2013-07-02 22:53:00
4:53 PM,89.1,62.1,40,30.02,10.0,NE,11.5,-,N/A,,Clear,50,2013-07-02 23:53:00
5:53 PM,87.1,62.1,43,30.01,10.0,North,11.5,-,N/A,,Clear,10,2013-07-03 00:53:00
6:53 PM,84.9,54.0,34,30.01,10.0,North,10.4,17.3,N/A,,Clear,360,2013-07-03 01:53:00
7:53 PM,82.0,52.0,35,30.02,10.0,NNW,6.9,-,N/A,,Clear,340,2013-07-03 02:53:00
8:53 PM,77.0,55.9,48,30.03,10.0,North,5.8,-,N/A,,Clear,350,2013-07-03 03:53:00
9:53 PM,73.0,55.9,55,30.05,10.0,North,8.1,-,N/A,,Clear,350,2013-07-03 04:53:00
10:53 PM,70.0,54.0,57,30.06,10.0,North,8.1,-,N/A,,Clear,350,2013-07-03 05:53:00
11:53 PM,68.0,52.0,56,30.08,10.0,North,6.9,-,N/A,,Clear,360,2013-07-03 06:53:00